This demonstration page uses our WeatherBlox Daily Observations layout. Learn more.

Left ArrowRight Arrow

39.01783, -85.05884

Hourly Observations for December 26, 2017

Temp ( °F °C ) Dew Point ( °F °C ) Humidity (%) Winds ( mph kmh ) Pressure ( in mb ) Visibility ( mi km ) Precip ( " mm )
12:52 am 00:52 Cloudy 22 -5.6 12 -11.1 66 66 W 7 11 30.44 1031 10 16 0.00 0.00
1:52 am 01:52 Cloudy 21 -6.1 12 -11.1 68 68 W 6 9 30.45 1031 10 16 0.00 0.00
2:52 am 02:52 Cloudy 21 -6.1 12 -11.1 68 68 Calm 30.45 1031 10 16 0.00 0.00
3:52 am 03:52 Cloudy 21 -6.1 11 -11.7 65 65 W 5 7 30.47 1032 10 16 0.00 0.00
4:52 am 04:52 Cloudy 21 -6.1 11 -11.7 65 65 WNW 5 7 30.47 1032 10 16 0.00 0.00
5:52 am 05:52 Cloudy 21 -6.1 11 -11.7 65 65 WNW 8 13 30.48 1032 10 16 0.00 0.00
6:52 am 06:52 Cloudy 21 -6.1 11 -11.7 65 65 NW 8 13 30.49 1033 10 16 0.00 0.00
7:52 am 07:52 Cloudy 20 -6.7 13 -10.6 74 74 N 10 17 30.51 1033 10 16 0.00 0.00
8:52 am 08:52 Cloudy 19 -7.2 14 -10 81 81 NNW 6 9 30.55 1035 10 16 0.00 0.00
9:52 am 09:52 Mostly Cloudy 20 -6.7 12 -11.1 71 71 NW 8 13 30.56 1035 10 16 0.00 0.00
10:52 am 10:52 Mostly Cloudy 21 -6.1 13 -10.6 71 71 NNW 6 9 30.58 1035 10 16 0.00 0.00
11:52 am 11:52 Mostly Cloudy 23 -5 13 -10.6 65 65 NNW 6 9 30.55 1035 10 16 0.00 0.00
12:52 pm 12:52 Cloudy 23 -5 13 -10.6 65 65 W 7 11 30.54 1034 10 16 0.00 0.00
1:52 pm 13:52 Cloudy 23 -5 13 -10.6 65 65 NW 8 13 30.53 1034 10 16 0.00 0.00
2:52 pm 14:52 Cloudy 23 -5 13 -10.6 65 65 W 8 13 30.51 1033 10 16 0.00 0.00
3:52 pm 15:52 Cloudy 23 -5 13 -10.6 65 65 N 7 11 30.50 1033 10 16 0.00 0.00
4:52 pm 16:52 Cloudy 22 -5.6 12 -11.1 66 66 NNW 8 13 30.51 1033 10 16 0.00 0.00
5:30 pm 17:30 Cloudy with Light Snow 21 -6.1 15 -9.4 78 78 NNW 8 13 30.53 1034 3 5 0.00 0.03
5:52 pm 17:52 Cloudy with Light Snow 20 -6.7 16 -8.9 85 85 NNW 9 15 30.51 1033 3 5 0.00 0.03
6:52 pm 18:52 Cloudy with Light Snow 19 -7.2 15 -9.4 84 84 N 10 17 30.53 1034 4 6 0.00 0.03
7:13 pm 19:13 Cloudy with Light Snow 18 -7.8 15 -9.4 88 88 NNW 10 17 30.56 1035 3 5 0.00 0.03
7:52 pm 19:52 Cloudy with Light Snow 17 -8.3 14 -10 88 88 NNW 9 15 30.54 1034 4 6 0.00 0.03
8:29 pm 20:29 Cloudy with Light Snow 16 -8.9 14 -10 92 92 N 10 17 30.56 1035 9 14 0.00 0.03
8:52 pm 20:52 Cloudy with Light Snow 16 -8.9 13 -10.6 88 88 N 8 13 30.53 1034 9 14 0.00 0.03
9:52 pm 21:52 Cloudy with Light Snow 15 -9.4 12 -11.1 88 88 N 9 15 30.54 1034 9 14 0.00 0.03
10:52 pm 22:52 Cloudy 15 -9.4 11 -11.7 84 84 NNW 13 20 30.56 1035 9 14 0.00 0.03
11:17 pm 23:17 Mostly Cloudy 14 -10 10 -12.2 84 84 N 9 15 30.59 1036 10 16 0.00 0.00
11:38 pm 23:38 Cloudy 14 -10 9 -12.8 80 80 NNW 9 15 30.59 1036 10 16 0.00 0.00
11:52 pm 23:52 Cloudy 13 -10.6 9 -12.8 84 84 N 10 17 30.58 1035 10 16 0.00 0.00

Powered by AerisWeather